sat.trackr.live / text

‹ back to catalog

STARLINK-5944

NORAD 56001 · 2023-042R

PAYLOAD ACTIVE UNKNOWN

§ Identity

Operator
Country
US
Launch date
2023-03-24
Launch site
AFETR
Launch vehicle
Mass (kg)
RCS (m²)

Purposes: comms

External: N2YO · Heavens-Above · Gunter

§ Orbital elements

Epoch: 2026-09-19T17:00:08.764128Z

Period
94.27 min
Inclination
43.0033°
Eccentricity
0.0000770
Mean motion
15.27579386 rev/d
Perigee alt
482.5 km
Apogee alt
483.6 km
Semi-major
6,861.2 km
B*
5.7288e-6
RAAN
48.0276°
Arg perigee
258.0536°
Mean anomaly
102.0229°
Rev number
19,249

§ Raw data

STARLINK-59441 56001U 23042R   26262.70843477 -.00000104  00000+0  57288-5 0  99912 56001  43.0033  48.0276 0000770 258.0536 102.0229 15.27579386192491

JSON: /api/v1/satellites/56001 · /tle

For live sub-satellite position, see the globe view (requires WebGL).

§ Visibility from observer

Set your observer location to see the next 7 days of passes ≥ 10°. The values pass through the URL so the page stays shareable.

No JS? Fill the form by hand. The geolocation button needs JavaScript.